Regional Weather Roundup
Issued by NWS Wakefield, VA

Home | Current Version | Previous Version | Graphics & Text | Print | Product List | Glossary On
Versions: 1 2 3 4 5 6 7 8 9 10 11 12 13 14 15 16 17 18 19 20 21 22 23 24 25 26 27 28 29 30 31 32 33 34 35 36 37 38 39 40 41 42 43 44 45 46 47 48 49 50
000
ASUS41 KAKQ 231314
RWRAKQ

REGIONAL WEATHER ROUNDUP
NATIONAL WEATHER SERVICE WAKEFIELD VA
900 AM EDT SAT MAY 23 2015

Note: "fair" indicates few or no clouds below 12,000 feet with no
significant weather and/or obstructions to visibility. * = Denotes
station may not report precipitation (e.g., rain,snow,etc.),
thunder or fog.

VAZ042-051-052>054-056-231400-
NORTHERN VIRGINIA

CITY           SKY/WX    TMP DP  RH WIND       PRES   REMARKS
WASH NATIONAL  MOSUNNY   62  30  29 N10       30.46R
DULLES         MOSUNNY   58  31  35 NW7       30.46R
FORT BELVOIR   SUNNY     60  28  28 NW6       30.46R
QUANTICO       SUNNY     62  30  29 NE8       30.48R
FREDERICKSBRG* SUNNY     60  32  34 N6        30.47R
STAFFORD*      SUNNY     59  29  31 N5        30.51R
WARRENTON      SUNNY     60  33  35 N3        30.46R
CULPEPER*      SUNNY     58  29  33 N6        30.48R
MANASSAS*      SUNNY     61  30  31 N7        30.47R
LEESBURG*      SUNNY     59  34  38 N6        30.47R
WINCHESTER     SUNNY     61  19  20 CALM      30.45R
FRONT ROYAL*   FAIR      54  37  54 CALM      30.45R
LURAY*         FAIR      59  34  38 CALM      30.46R
$$

VAZ048-049-060>072-079>083-231400-
CENTRAL AND SOUTH CENTRAL VIRGINIA

CITY           SKY/WX    TMP DP  RH WIND       PRES   REMARKS
RICHMOND       MOSUNNY   62  35  36 N12       30.46R
CHESTERFIELD*  NOT AVBL
PETERSBURG*    SUNNY     63  32  30 NE12      30.47R
HANOVER        SUNNY     60  35  39 VRB6      30.48R
TAPPAHANNOCK*  SUNNY     62  26  26 N7        30.46R
QUINTON*       FAIR      59  39  48 NE3       30.46R
CHARLOTTSVILLE MOSUNNY   59  34  39 E6        30.46R
GORDONSVILLE*  FAIR      59  31  33 NE7       30.46R
ORANGE*        SUNNY     61  32  33 N3        30.47R
LOUISA*        SUNNY     61  34  36 NE6       30.45R
BUMPASS*       FAIR      58  33  38 N3        30.46R
FARMVILLE*     SUNNY     60  40  47 NE7       30.46R
CREWE*         FAIR      59  35  39 NE5       30.46R
FORT PICKETT*  NOT AVBL
CHASE CITY*    FAIR      62  42  48 NE7       30.45R
CLARKSVILLE*   FAIR      59  36  41 NE8       30.45R
SOUTH HILL*    SUNNY     60  41  49 CALM      30.50R
LAWRENCEVILLE* FAIR      61  39  44 NE6       30.45R
EMPORIA*       SUNNY     61  41  48 N8        30.46R
$$

VAZ088>098-231400-
SOUTHEAST VIRGINIA

CITY           SKY/WX    TMP DP  RH WIND       PRES   REMARKS
NORFOLK        SUNNY     66  42  41 NE16      30.42R
VIRGINIA BEACH MOSUNNY   68  43  40 NE13G22   30.42R
NORFOLK NAVAL  MOSUNNY   71  44  37 NE14      30.44R
WEST POINT*    SUNNY     64  34  32 NE6       30.47R
SALUDA*        FAIR      61  39  43 N7        30.44R
NEWPORT NEWS   SUNNY     68  43  40 N9        30.44R
LANGLEY AFB    SUNNY     65  46  49 NE13G20   30.42R
FORT EUSTIS    SUNNY     64  41  43 VRB7      30.42R
WILLIAMSBURG*  SUNNY     63  43  48 NE3       30.45R
HR EXEC AP*    FAIR      66  48  52 NE6       30.44R
FRANKLIN*      SUNNY     64  44  48 N9        30.44R
WAKEFIELD      SUNNY     63  44  50 N7        30.44R
$$

VAZ020-022-025-037-045-231400-
WEST CENTRAL AND SOUTHWEST VIRGINIA

CITY           SKY/WX    TMP DP  RH WIND       PRES   REMARKS
STAUNTON*      PTSUNNY   57  35  42 CALM      30.48R
WAYNESBORO*    FAIR      56  33  42 CALM      30.46R
HOT SPRINGS VA PTSUNNY   53  42  65 W5        30.46R
LYNCHBURG      SUNNY     59  39  47 NE7       30.47R
DANVILLE       MOSUNNY   61  43  51 NE9       30.46R
SOUTH BOSTON*  FAIR      60  41  49 NE5       30.46R
MARTINSVILLE   MOSUNNY   61  49  65 CALM      30.46R
ROANOKE        SUNNY     61  47  59 NE5       30.47R
BLACKSBURG     SUNNY     53  47  81 CALM      30.48R
DUBLIN*        SUNNY     58  47  66 CALM      30.47R
MARION*        SUNNY     59  48  66 CALM      30.48S
HILLSVILLE*    SUNNY     53  44  73 CALM      30.47R
RICHLANDS*     FAIR      56  48  72 CALM      30.45R
WISE*          MOSUNNY   61  41  48 CALM      30.46R
ABINGDON*      MOSUNNY   61  45  55 E9        30.44R
$$

MDZ021>025-VAZ099-100-231400-
SOUTHERN MARYLAND AND THE DELMARVA PENINSULA

CITY           SKY/WX    TMP DP  RH WIND       PRES   REMARKS
PATUXENT RIVER MOSUNNY   62  32  32 N12       30.45R
BAY BRIDGE APT   N/A    N/A N/A N/A N10       30.46R
LEONARDTOWN    SUNNY     59  28  31 N7        30.47R
DOVER          MOSUNNY   57  39  50 N8        30.41R
GEORGETOWN     SUNNY     59  34  39 N9        30.44R
EASTON         MOSUNNY   59  32  36 N9G16     30.48R
CAMBRIDGE      SUNNY     61  28  29 N8        30.45R
SALISBURY      SUNNY     60  33  36 N8        30.43R
OCEAN CITY     SUNNY     60  42  51 NE10      30.43R
WALLOPS ISLAND SUNNY     61  36  39 N8        30.44R
ACCOMACK*      SUNNY     61  -6   6 NE7       30.44R
$$

NCZ012>017-030>032-231400-
NORTH CENTRAL AND EASTERN NORTH CAROLINA

CITY           SKY/WX    TMP DP  RH WIND       PRES   REMARKS
ROANOKE RAPIDS FAIR      61  45  55 N9G16     30.44R
RALEIGH        MOSUNNY   64  48  56 NE12      30.44R
ELIZABETH CITY SUNNY     67  53  61 NE15      30.41R
AHOSKIE*       SUNNY     64  47  53 N10       30.43R
EDENTON*       SUNNY     65  54  68 NE8       30.41R
CURRITUCK*     SUNNY     67  40  37 NE10G21   30.42R
KILL DEVIL HLS SUNNY     67  53  61 N9        30.39R
MANTEO         SUNNY     68  52  56 N9        30.40R
CAPE HATTERAS  SUNNY     71  53  52 N5        30.38R
TARBORO*       FAIR      64  49  57 NE7       30.43R
GOLDSBORO        N/A    N/A N/A N/A MISG        N/A
WASHINGTON     SUNNY     64  52  67 N6        30.41R
GREENVILLE     SUNNY     64  52  63 N10       30.41R
NEW BERN       SUNNY     69  58  67 W3        30.41R
WILMINGTON     SUNNY     69  58  67 NE7       30.39R
$$

VAZ048-231400-
ELSEWHERE

CITY           SKY/WX    TMP DP  RH WIND       PRES   REMARKS
HARRISBURG PA  MOSUNNY   53  26  35 NE7       30.45R
BALTIMORE      MOSUNNY   59  29  31 VRB6      30.45R
ANNAPOLIS      MOSUNNY   58  31  35 NW6       30.46R
ANDREWS AFB    SUNNY     59  28  31 N10       30.45R
PHILADELPHIA   MOSUNNY   55  27  34 N8        30.45R
HENDERSON NC   MOSUNNY   63  39  41 NE10G17   30.45R
GREENSBORO     MOSUNNY   67  47  48 CALM      30.42R
ROCKY MOUNT    MOSUNNY   65  45  48 NE14      30.43R
$$

VAZ100-231400-
MARINE

STATION/POSITION TIME  TEMP    WIND        PRES    WAVE   SWELL
                       AIR SEA DIR/SP/G            HT/PER HT/PER
                 (UTC) (F)     (DEG/KT/KT) (MB)    (FT/S) (FT/S)
BRANDYWINE LGT   1200   56 62   40/ 11/ 14 1029.7R
CAPE MAY NJ      1200   56 67  360/  6/ 11 1029.2R
LEWES DE         1200   58 62   30/ 12/ 14 1029.4R
15NM E FENWICK I 1250   57 59              1029.9R   3/ 4
OCEAN-CITY-INLET 1200   57 61   10/ 11/ 13 1029.2R
WACHAPREAGUE VA  1200   60 66   20/  7/ 11 1030.0R
THOMAS POINT MD  1300   58 64  360/ 12/ 13 1031.7R
GOOSES REEF MD   1300   58 64   10/ 16/ 17 1031.9R   2/ 3
SOLOMONS ISLAND  1200      67                N/A
BISHOPS HEAD MD  1200   60 64   10/  9/ 12 1029.7R
PINEY POINT MD   1200          350/  8/ 10   N/A
CAMBRIDGE MD     1200   58 69  360/  9/ 12 1030.0R
LEWISETTA VA     1200   59 67              1030.2R
RAPPAHANNOCK LGT 1200           20/ 15/ 17 1030.5R
STINGRAY PT      1300   63 69   30/ 12/ 16 1030.4R   2/ 3
YORK RVR RNG VA  1200   62      10/ 15/ 17 1029.0R
YORKTOWN VA      1200   61 70  360/  9/ 11 1029.8R
JAMESTOWN VA     1300   62 73   30/  6/ 10 1030.1R
DOMINION TERM VA 1200   65      60/  1/  4 1029.4R
KIPTOPEKE VA     1200      71   30/  6/ 12   N/A
CHES BAY BRIDGE  1200   64 68   30/ 14/ 16 1028.9R
CAPE HENRY VA    1200   64      20/ 17/ 20 1028.1R
CHESAPEAKE LGHT  1200   62      20/ 19/ 23 1029.3R
WILLOUBY STN VA  1200   65      20/ 16/ 19 1030.1R
CAPE HENRY BUOY  1228      63                N/A     3/ 4
1ST LANDING BUOY 1300      66              1029.9R
CAPE CHARLES BUO 1226      64                N/A     3/ 4   2/ 7
OFFSHORE WE BUOY 1211      60                N/A     2/ 3   2/ 8
64NM E OF VA BCH 1250   62 60   20/ 14/ 16 1029.0R   2/ 9   2/ 9
DUCK PIER NC     1200   63 64  350/  6/  7 1027.7R
44100 DUCK FRF   1224      61                N/A     1/ 8
44056 DUCK FRF   1211      64                N/A     1/ 9
OREGON INLET NC  1200   68 69  340/  8/ 12 1028.6R
HATTERAS NC      1200   71 71  310/  6/  6 1027.6R
DIAMOND SHLS NC  1250   71 77  350/  6/  8 1028.5R   3/10   3/10
CAPE LOOKOUT NC  1300   69     350/  5/  6 1028.5R
$$



USA.gov is the U.S. government's official web portal to all federal, state and local government web resources and services.